Weather History for Riverside March, CA

Change the Weather History Date:

Thursday, December 13, 2012

  Actual Average Record
Temperature  
Mean Temperature 48 °F -  
Max Temperature 52 °F 63 °F 81 °F (2010)
Min Temperature 42 °F 38 °F 32 °F (2000)
Degree Days  
Heating Degree Days 16    
Moisture  
Dew Point 50 °F    
Average Humidity 100    
Maximum Humidity 100    
Minimum Humidity 99    
Precipitation  
Precipitation 1.25 in - - ()
Sea Level Pressure  
Sea Level Pressure 29.78 in    
Wind  
Wind Speed 8 mph (SE)    
Max Wind Speed 13 mph    
Max Gust Speed 21 mph    
Visibility 8 miles    
Events Rain    
Averages and records for this station are not official NWS values.
T = Trace of Precipitation, MM = Missing Value Source: NWS Daily Summary

Daily Weather History Graph

Daily Weather History Graph

Search for Another Location

Airport:

Trip Planner

Search our weather history database for the weather conditions in past years. The results will help you decide how hot, cold, wet, or windy it might be!

Date:

Astronomy

Dec. 13, 2012 Rise Set
Actual Time 6:45 AM PST 4:41 PM PST
Civil Twilight 6:18 AM PST 5:08 PM PST
Nautical Twilight 5:46 AM PST 5:40 PM PST
Astronomical Twilight 5:16 AM PST 6:10 PM PST
Moon 6:59 AM PST (12/13) 5:27 PM PST (12/13)
Length of Visible Light 10h 50m
Length of Day
9h 55m
New Moon, 0% of the Moon is Illuminated
Dec 13
New Moon
Dec 19
First Quarter
Dec 28
Full
Jan 4
Last Quarter
Jan 11
New

Hourly Weather History & Observations

Time (PST) Temp. Dew Point Humidity Pressure Visibility Wind Dir Wind Speed Gust Speed Precip Events Conditions
12:18 AM 51.8 °F 51.8 °F 100% 29.86 in 7.0 mi SSE 9.2 mph - N/A Rain Light Rain
12:38 AM 51.8 °F 51.8 °F 100% 29.85 in 10.0 mi SSE 9.2 mph - N/A   Overcast
12:48 AM 51.8 °F 51.8 °F 100% 29.84 in 10.0 mi SSE 10.4 mph - N/A Rain Light Rain
12:58 AM 51.8 °F 51.8 °F 100% 29.83 in 10.0 mi SSE 12.7 mph - 0.05 in Rain Light Rain
1:23 AM 51.8 °F 51.8 °F 100% 29.84 in 10.0 mi SE 9.2 mph - N/A   Overcast
1:58 AM 51.8 °F 51.8 °F 100% 29.81 in 10.0 mi ESE 8.1 mph - 0.01 in   Overcast
2:09 AM 51.8 °F 51.8 °F 100% 29.82 in 5.0 mi SE 11.5 mph - N/A Rain Light Rain
2:30 AM 51.8 °F 51.8 °F 100% 29.82 in 5.0 mi SSE 8.1 mph - N/A Rain Light Rain
2:40 AM 51.8 °F 51.8 °F 100% 29.81 in 7.0 mi SE 11.5 mph - N/A Rain Light Rain
2:58 AM 51.3 °F 51.3 °F 100% 29.80 in 3.0 mi SSE 10.4 mph 20.7 mph 0.10 in Rain Rain
3:23 AM 51.8 °F 51.8 °F 100% 29.80 in 7.0 mi SE 11.5 mph - N/A Rain Light Rain
3:48 AM 51.8 °F 51.8 °F 100% 29.79 in 10.0 mi SE 9.2 mph - N/A   Overcast
3:58 AM 51.1 °F 51.1 °F 100% 29.78 in 10.0 mi SE 9.2 mph - 0.02 in   Overcast
4:43 AM 51.8 °F 51.8 °F 100% 29.78 in 7.0 mi SE 11.5 mph - N/A Rain Light Rain
4:58 AM 50.7 °F 50.7 °F 100% 29.78 in 5.0 mi SSE 11.5 mph - 0.01 in Rain Light Rain
5:13 AM 50.0 °F 50.0 °F 100% 29.79 in 4.0 mi SSE 9.2 mph - N/A Rain Light Rain
5:23 AM 50.0 °F 50.0 °F 100% 29.79 in 3.0 mi South 6.9 mph - N/A Rain Rain
5:58 AM 50.4 °F 50.4 °F 100% 29.79 in 7.0 mi SE 10.4 mph - 0.10 in Rain Light Rain
6:58 AM 50.2 °F 50.2 °F 100% 29.79 in 10.0 mi SE 10.4 mph - 0.06 in Rain Light Rain
7:29 AM 50.0 °F 50.0 °F 100% 29.80 in 4.0 mi SE 9.2 mph - N/A Rain Light Rain
7:33 AM 50.0 °F 50.0 °F 100% 29.79 in 3.0 mi SE 10.4 mph - N/A Rain Light Rain
7:56 AM 49.6 °F 49.6 °F 100% 29.81 in 3.0 mi SE 9.2 mph - 0.09 in Rain Light Rain
8:17 AM 50.0 °F 50.0 °F 100% 29.80 in 2.5 mi SE 8.1 mph - N/A Rain Rain
8:30 AM 50.0 °F 50.0 °F 100% 29.82 in 1.2 mi SW 9.2 mph - N/A Rain Heavy Rain
8:56 AM 49.5 °F 49.5 °F 100% 29.83 in 4.0 mi NNE 5.8 mph - 0.41 in Rain Light Rain
9:17 AM 50.0 °F 50.0 °F 100% 29.82 in 7.0 mi SW 3.5 mph - N/A Rain Light Rain
9:48 AM 50.0 °F 50.0 °F 100% 29.82 in 5.0 mi South 4.6 mph - N/A Rain Light Rain
9:56 AM 50.2 °F 50.2 °F 100% 29.85 in 6.0 mi SSE 4.6 mph - 0.04 in Rain Light Rain
9:58 AM 50.2 °F 50.2 °F 100% 29.83 in 4.0 mi SSE 4.6 mph - 0.04 in Rain Light Rain
10:29 AM 50.0 °F 50.0 °F 100% 29.82 in 8.0 mi East 5.8 mph - N/A   Overcast
10:58 AM 50.9 °F 50.9 °F 100% 29.81 in 5.0 mi ESE 5.8 mph - 0.02 in Rain Light Rain
11:07 AM 50.0 °F 50.0 °F 100% 29.81 in 3.0 mi ESE 4.6 mph - N/A Rain Light Rain
11:23 AM 51.8 °F 51.8 °F 100% 29.80 in 6.0 mi ENE 5.8 mph - N/A Rain Light Rain
11:58 AM 51.4 °F 51.4 °F 100% 29.78 in 10.0 mi East 4.6 mph - 0.03 in   Overcast
12:14 PM 51.8 °F 51.8 °F 100% 29.78 in 8.0 mi ESE 5.8 mph - N/A Rain Light Rain
12:43 PM 50.0 °F 50.0 °F 100% 29.76 in 6.0 mi SE 8.1 mph - N/A Rain Light Rain
12:58 PM 51.1 °F 51.1 °F 100% 29.77 in 8.0 mi SSE 8.1 mph - 0.04 in Rain Light Rain
1:43 PM 51.8 °F 51.8 °F 100% 29.74 in 10.0 mi SE 8.1 mph - N/A   Overcast
1:58 PM 52.5 °F 52.5 °F 100% 29.74 in 10.0 mi SSE 10.4 mph - 0.03 in   Mostly Cloudy
2:16 PM 51.8 °F 51.8 °F 100% 29.73 in 10.0 mi SE 8.1 mph - N/A   Overcast
2:22 PM 51.8 °F 51.8 °F 100% 29.73 in 10.0 mi SE 8.1 mph - N/A Rain Light Rain
2:38 PM 51.8 °F 51.8 °F 100% 29.73 in 10.0 mi SSE 9.2 mph - N/A   Overcast
2:52 PM 51.8 °F 51.8 °F 100% 29.72 in 10.0 mi Variable 3.5 mph - N/A Rain Light Rain
2:58 PM 51.4 °F 51.4 °F 100% 29.72 in 10.0 mi NNW 9.2 mph - 0.00 in Rain Light Rain
3:08 PM 51.8 °F 51.8 °F 100% 29.72 in 6.0 mi NE 4.6 mph - N/A Rain Light Rain
3:18 PM 50.0 °F 50.0 °F 100% 29.73 in 4.0 mi West 3.5 mph - N/A Rain Rain
3:31 PM 50.0 °F 50.0 °F 100% 29.72 in 10.0 mi East 4.6 mph - N/A Rain Light Rain
3:58 PM 50.0 °F 50.0 °F 100% 29.72 in 10.0 mi Calm Calm - 0.21 in   Overcast
4:08 PM 50.0 °F 50.0 °F 100% 29.73 in 5.0 mi SW 2.3 mph - N/A Rain Light Rain
4:18 PM 50.0 °F 50.0 °F 100% 29.72 in 10.0 mi WNW 4.6 mph - N/A   Light Drizzle
4:28 PM 50.0 °F 50.0 °F 100% 29.72 in 10.0 mi NW 5.8 mph - N/A   Overcast
4:43 PM 50.0 °F 50.0 °F 100% 29.72 in 10.0 mi NNW 9.2 mph - N/A   Overcast
4:58 PM 49.6 °F 49.6 °F 100% 29.72 in 10.0 mi North 8.1 mph - 0.03 in   Mostly Cloudy
5:58 PM 48.9 °F 48.9 °F 100% 29.74 in 10.0 mi WNW 5.8 mph - N/A   Mostly Cloudy
6:58 PM 48.6 °F 48.6 °F 100% 29.73 in 10.0 mi WNW 3.5 mph - N/A   Overcast
7:58 PM 47.8 °F 47.7 °F 99% 29.76 in 10.0 mi NNW 4.6 mph - N/A   Overcast
8:58 PM 47.1 °F 46.9 °F 99% 29.78 in 10.0 mi SW 2.3 mph - N/A   Overcast
9:58 PM 46.6 °F 46.4 °F 99% 29.76 in 10.0 mi West 2.3 mph - N/A   Mostly Cloudy
10:58 PM 45.7 °F 45.7 °F 100% 29.76 in 10.0 mi WNW 2.3 mph - N/A   Scattered Clouds
11:58 PM 42.3 °F 42.3 °F 100% 29.75 in 10.0 mi Calm Calm - N/A   Scattered Clouds